QPF
0.00 0.00 0.00 0.00 0.00 0.00 0.00 0.04 0.13 0.02 0.06 0.06 0.00 0.00 0.00 0.00 0.00 0.00 0.00 0.00 0.00 0.00 0.03 0.08 0.06 0.01 0.00 0.00 0.00 0.00 0.00 0.01 0.02 0.01 0.00 0.00 0.00 0.00 0.00 0.00 0.00 0.00 0.00 0.00 0.00 0.00 0.00 0.00 0.00
0.00 0.00 0.01 0.02 0.00 0.00 0.00 0.01 0.06 0.02 0.04 0.08 0.00 0.00 0.00 0.00 0.01 0.01 0.01 0.00 0.00 0.00 0.01 0.03 0.01 0.00 0.00 0.00 0.00 0.00 0.00 0.01 0.01 0.00 0.00 0.00 0.00 0.00 0.00 0.00 0.00 0.00 0.00 0.00 0.00 0.00 0.00 0.00 0.01
0.01 0.00 0.01 0.00 0.00 0.00 0.00 0.00 0.00 0.00 0.00 0.00 0.00 0.00 0.00 0.01 0.01 0.00 0.00 0.00 0.00 0.00 0.00 0.00 0.00 0.00 0.00 0.00 0.00 0.00 0.01 0.00 0.00 0.00 0.00 0.00 0.00 0.00 0.00 0.00 0.00 0.00 0.00 0.00 0.00 0.00 0.00 0.00 0.00
0.04 0.03 0.06 0.01 0.00 0.00 0.00 0.00 0.00 0.00 0.01 0.00 0.00 0.00 0.00 0.01 0.00 0.00 0.00 0.00 0.00 0.00 0.03 0.02 0.00 0.00 0.00 0.00 0.00 0.00 0.00 0.00 0.00 0.00 0.00 0.00 0.00 0.00 0.00 0.00 0.00 0.00 0.00 0.00 0.00 0.00 0.00 0.00 0.00
0.02 0.01 0.02 0.00 0.00 0.00 0.03 0.01 0.00 0.00 0.00 0.00 0.00 0.00 0.01 0.01 0.00 0.00 0.00 0.00 0.00 0.01 0.05 0.03 0.03 0.00 0.00 0.00 0.00 0.00 0.00 0.00 0.00 0.00 0.00 0.00 0.00 0.00 0.00 0.00 0.00 0.00 0.00 0.00 0.00 0.00 0.00 0.00 0.02
0.00 0.00 0.00 0.01 0.06 0.03 0.03 0.01 0.00 0.00 0.00 0.00 0.00 0.00 0.01 0.01 0.00 0.00 0.00 0.00 0.00 0.01 0.06 0.04 0.01 0.00 0.00 0.00 0.00 0.00 0.00 0.00 0.00 0.00 0.00 0.00 0.00 0.00 0.00 0.00 0.00 0.00 0.00 0.00 0.00 0.00 0.00 0.00 0.00
0.00 0.00 0.00 0.00 0.02 0.01 0.00 0.00 0.00 0.00 0.00 0.00 0.00 0.00 0.02 0.02 0.00 0.00 0.00 0.02 0.04 0.05 0.04 0.00 0.00 0.00 0.00 0.00 0.00 0.00 0.00 0.00 0.00 0.00 0.00 0.00 0.00 0.00 0.00 0.00 0.00 0.00 0.00 0.00 0.00 0.00 0.00 0.00 0.02
0.00 0.00 0.00 0.00 0.00 0.00 0.00 0.00 0.00 0.00 0.00 0.00 0.00 0.00 0.01 0.00 0.00 0.00 0.00 0.01 0.05 0.02 0.00 0.01 0.00 0.00 0.00 0.00 0.00 0.00 0.00 0.00 0.00 0.00 0.00 0.00 0.00 0.00 0.00 0.00 0.00 0.00 0.00 0.00 0.00 0.00 0.00 0.00 0.00
0.00 0.00 0.00 0.00 0.00 0.00 0.00 0.00 0.00 0.00 0.00 0.00 0.00 0.00 0.00 0.00 0.00 0.00 0.01 0.02 0.01 0.00 0.00 0.00 0.00 0.00 0.00 0.00 0.00 0.00 0.00 0.00 0.00 0.00 0.01 0.00 0.00 0.00 0.00 0.02 0.05 0.03 0.00 0.00 0.00 0.00 0.00 0.00 0.02
0.00 0.00 0.00 0.00 0.00 0.00 0.00 0.00 0.00 0.00 0.00 0.00 0.00 0.00 0.00 0.00 0.00 0.00 0.00 0.00 0.00 0.00 0.00 0.00 0.00 0.00 0.00 0.00 0.00 0.00 0.00 0.00 0.00 0.00 0.00 0.01 0.01 0.01 0.00 0.00 0.04 0.07 0.02 0.00 0.01 0.00 0.00 0.01 0.07
0.00 0.00 0.00 0.00 0.00 0.00 0.00 0.00 0.00 0.00 0.00 0.00 0.00 0.00 0.00 0.00 0.00 0.00 0.00 0.00 0.00 0.00 0.00 0.00 0.00 0.00 0.00 0.00 0.00 0.00 0.00 0.00 0.00 0.00 0.00 0.04 0.00 0.00 0.00 0.00 0.00 0.03 0.03 0.00 0.00 0.00 0.01 0.03 0.12
0.00 0.00 0.00 0.00 0.00 0.00 0.00 0.00 0.00 0.00 0.00 0.00 0.00 0.00 0.00 0.00 0.00 0.00 0.00 0.00 0.00 0.00 0.00 0.00 0.00 0.00 0.00 0.00 0.00 0.00 0.00 0.00 0.00 0.00 0.01 0.01 0.00 0.00 0.00 0.00 0.01 0.02 0.00 0.00 0.00 0.00 0.00 0.01 0.04
0.00 0.00 0.00 0.00 0.00 0.00 0.00 0.00 0.00 0.00 0.00 0.00 0.00 0.00 0.00 0.00 0.00 0.00 0.00 0.00 0.00 0.00 0.00 0.00 0.00 0.00 0.00 0.00 0.00 0.00 0.00 0.00 0.00 0.00 0.00 0.00 0.00 0.01 0.03 0.03 0.04 0.00 0.00 0.00 0.00 0.00 0.00 0.02 0.01
0.00 0.00 0.00 0.00 0.00 0.00 0.00 0.00 0.00 0.00 0.00 0.00 0.00 0.00 0.00 0.00 0.00 0.00 0.00 0.00 0.00 0.00 0.00 0.00 0.00 0.00 0.00 0.00 0.00 0.00 0.03 0.07 0.00 0.00 0.00 0.00 0.00 0.01 0.03 0.08 0.01 0.00 0.00 0.03 0.00 0.00 0.03 0.01 0.00
0.00 0.00 0.00 0.00 0.00 0.00 0.00 0.00 0.00 0.00 0.00 0.00 0.00 0.00 0.00 0.00 0.00 0.00 0.00 0.00 0.00 0.00 0.00 0.00 0.00 0.00 0.00 0.00 0.00 0.00 0.00 0.00 0.00 0.00 0.00 0.00 0.00 0.00 0.00 0.00 0.02 0.04 0.01 0.01 0.02 0.01 0.00 0.00 0.00
0.00 0.00 0.00 0.00 0.00 0.00 0.00 0.00 0.00 0.00 0.00 0.00 0.00 0.00 0.00 0.00 0.00 0.00 0.00 0.00 0.00 0.00 0.00 0.00 0.00 0.00 0.00 0.00 0.00 0.00 0.00 0.00 0.00 0.00 0.00 0.00 0.00 0.00 0.00 0.00 0.01 0.01 0.05 0.01 0.01 0.03 0.00 0.00 0.00
0.00 0.00 0.00 0.00 0.00 0.00 0.00 0.00 0.00 0.00 0.00 0.00 0.00 0.00 0.00 0.00 0.00 0.00 0.00 0.00 0.00 0.00 0.00 0.00 0.00 0.00 0.00 0.00 0.00 0.00 0.00 0.00 0.00 0.00 0.00 0.00 0.00 0.00 0.00 0.00 0.00 0.00 0.00 0.00 0.00 0.00 0.00 0.00 0.00
0.00 0.00 0.00 0.00 0.00 0.00 0.00 0.00 0.00 0.00 0.00 0.00 0.00 0.00 0.00 0.00 0.00 0.00 0.00 0.00 0.00 0.00 0.00 0.00 0.00 0.00 0.00 0.00 0.00 0.00 0.00 0.00 0.00 0.00 0.00 0.00 0.00 0.00 0.00 0.00 0.00 0.00 0.00 0.00 0.00 0.00 0.00 0.00 0.00
0.00 0.00 0.00 0.00 0.00 0.00 0.00 0.00 0.00 0.00 0.00 0.00 0.00 0.00 0.00 0.00 0.00 0.00 0.00 0.00 0.00 0.00 0.00 0.00 0.00 0.00 0.00 0.00 0.00 0.00 0.00 0.00 0.00 0.00 0.00 0.00 0.00 0.00 0.00 0.00 0.00 0.00 0.00 0.00 0.00 0.00 0.00 0.00 0.00
0.00 0.00 0.00 0.00 0.00 0.00 0.00 0.00 0.00 0.00 0.00 0.00 0.00 0.00 0.00 0.00 0.00 0.00 0.00 0.00 0.00 0.00 0.00 0.00 0.00 0.00 0.00 0.00 0.00 0.00 0.00 0.00 0.00 0.00 0.00 0.00 0.00 0.00 0.00 0.00 0.03 0.01 0.03 0.05 0.01 0.00 0.01 0.00 0.00
0.00 0.00 0.00 0.00 0.00 0.00 0.00 0.00 0.00 0.00 0.00 0.00 0.00 0.00 0.00 0.00 0.00 0.00 0.00 0.00 0.00 0.00 0.00 0.00 0.00 0.00 0.00 0.00 0.00 0.00 0.00 0.00 0.00 0.00 0.00 0.00 0.00 0.00 0.00 0.00 0.01 0.03 0.06 0.05 0.00 0.00 0.02 0.03 0.03
0.00 0.00 0.00 0.00 0.00 0.00 0.00 0.00 0.00 0.00 0.00 0.00 0.00 0.00 0.00 0.00 0.00 0.00 0.00 0.00 0.00 0.00 0.00 0.00 0.00 0.00 0.00 0.00 0.00 0.00 0.00 0.00 0.00 0.00 0.00 0.00 0.00 0.00 0.00 0.00 0.00 0.00 0.00 0.00 0.00 0.00 0.03 0.01 0.00
0.00 0.00 0.00 0.00 0.00 0.00 0.00 0.00 0.00 0.00 0.00 0.00 0.00 0.00 0.00 0.00 0.00 0.00 0.00 0.00 0.00 0.00 0.00 0.00 0.00 0.00 0.00 0.00 0.00 0.00 0.00 0.00 0.00 0.00 0.00 0.00 0.00 0.00 0.00 0.00 0.00 0.02 0.01 0.00 0.00 0.02 0.06 0.01 0.01
0.00 0.00 0.00 0.00 0.00 0.00 0.00 0.00 0.00 0.00 0.00 0.00 0.00 0.00 0.00 0.00 0.00 0.00 0.00 0.00 0.00 0.00 0.00 0.00 0.00 0.00 0.00 0.00 0.00 0.00 0.00 0.00 0.00 0.00 0.00 0.00 0.00 0.00 0.00 0.00 0.00 0.00 0.00 0.00 0.01 0.05 0.03 0.00 0.00
0.00 0.00 0.00 0.00 0.00 0.00 0.00 0.00 0.00 0.00 0.00 0.00 0.00 0.00 0.00 0.00 0.00 0.00 0.00 0.00 0.00 0.00 0.00 0.00 0.00 0.00 0.00 0.00 0.00 0.00 0.00 0.00 0.00 0.00 0.00 0.00 0.00 0.00 0.00 0.00 0.00 0.00 0.00 0.00 0.00 0.00 0.00 0.00 0.00
0.00 0.00 0.00 0.00 0.00 0.00 0.00 0.00 0.00 0.00 0.00 0.00 0.00 0.00 0.00 0.00 0.00 0.00 0.00 0.00 0.00 0.00 0.00 0.00 0.00 0.00 0.00 0.00 0.00 0.00 0.00 0.00 0.00 0.00 0.00 0.00 0.00 0.00 0.00 0.00 0.00 0.00 0.00 0.00 0.00 0.00 0.00 0.00 0.00
0.00 0.00 0.00 0.00 0.00 0.00 0.00 0.00 0.00 0.00 0.00 0.00 0.00 0.00 0.00 0.00 0.00 0.00 0.00 0.00 0.00 0.00 0.00 0.00 0.00 0.00 0.00 0.00 0.00 0.00 0.00 0.00 0.00 0.00 0.00 0.00 0.00 0.00 0.00 0.00 0.00 0.00 0.00 0.00 0.00 0.00 0.00 0.00 0.00
0.00 0.00 0.00 0.00 0.00 0.00 0.00 0.00 0.00 0.00 0.00 0.00 0.00 0.00 0.00 0.00 0.00 0.00 0.00 0.00 0.00 0.00 0.00 0.00 0.00 0.00 0.00 0.00 0.00 0.00 0.00 0.00 0.00 0.00 0.00 0.00 0.00 0.00 0.00 0.00 0.00 0.00 0.00 0.00 0.00 0.00 0.00 0.00 0.00
0.00 0.00 0.00 0.00 0.00 0.00 0.00 0.00 0.00 0.00 0.00 0.00 0.00 0.00 0.00 0.00 0.00 0.00 0.00 0.00 0.00 0.00 0.00 0.00 0.00 0.00 0.00 0.00 0.00 0.00 0.00 0.00 0.00 0.00 0.00 0.00 0.00 0.00 0.00 0.00 0.00 0.00 0.00 0.00 0.00 0.00 0.00 0.00 0.00
0.00 0.00 0.00 0.00 0.00 0.00 0.00 0.00 0.00 0.00 0.00 0.00 0.00 0.00 0.00 0.00 0.00 0.00 0.00 0.00 0.00 0.00 0.00 0.00 0.00 0.00 0.00 0.00 0.00 0.00 0.00 0.00 0.00 0.00 0.00 0.00 0.00 0.00 0.00 0.00 0.00 0.00 0.00 0.00 0.00 0.00 0.00 0.00 0.00
MSLP
1009.29 1009.49 1009.75 1010.20 1011.10 1010.83 1011.86 1011.76 1011.52 1010.95 1010.78 1010.94 1010.92 1011.19 1012.56 1013.57 1014.03 1015.22 1015.34 1015.44 1015.60 1015.81 1015.67 1015.59 1015.43 1015.40 1015.42 1015.45 1015.48 1015.46 1015.60 1015.77 1015.82 1015.78 1015.81 1015.73 1015.90 1016.06 1016.12 1016.08 1016.18 1016.23 1016.22 1016.33 1016.53 1016.55 1016.46 1016.68 1016.78
1009.20 1009.52 1009.69 1009.81 1010.28 1010.87 1011.33 1010.98 1010.51 1010.51 1011.07 1011.01 1011.45 1012.13 1012.71 1013.93 1014.40 1015.06 1015.34 1015.55 1015.60 1015.92 1015.82 1015.79 1015.70 1015.68 1015.76 1015.77 1015.77 1015.75 1015.87 1015.97 1016.07 1016.16 1016.14 1016.06 1016.16 1016.31 1016.34 1016.38 1016.40 1016.54 1016.57 1016.63 1016.77 1016.92 1016.92 1016.96 1017.02
1009.08 1008.88 1009.60 1009.74 1010.01 1010.30 1010.18 1010.12 1009.92 1010.32 1010.61 1010.84 1011.86 1012.55 1013.23 1014.26 1014.92 1015.21 1015.36 1015.61 1015.84 1016.16 1016.15 1015.94 1015.90 1015.90 1016.04 1016.02 1015.89 1016.01 1016.13 1016.24 1016.28 1016.32 1016.45 1016.41 1016.47 1016.52 1016.59 1016.59 1016.70 1016.82 1016.83 1016.86 1016.99 1017.09 1017.12 1017.19 1017.19
1008.81 1009.39 1009.81 1009.80 1009.59 1009.25 1009.18 1009.49 1009.79 1010.17 1010.60 1011.07 1011.85 1013.00 1013.96 1014.62 1014.89 1015.36 1015.85 1015.83 1016.15 1016.24 1016.23 1016.13 1016.09 1016.14 1016.19 1016.18 1016.20 1016.13 1016.20 1016.42 1016.46 1016.44 1016.56 1016.66 1016.72 1016.70 1016.77 1016.82 1016.87 1016.97 1017.01 1017.05 1017.05 1017.16 1017.22 1017.29 1017.32
1008.82 1009.37 1009.51 1009.49 1009.42 1009.21 1009.41 1009.38 1009.83 1010.21 1010.79 1011.49 1011.80 1013.43 1014.28 1015.05 1015.23 1015.75 1016.13 1016.30 1016.30 1016.45 1016.48 1016.39 1016.40 1016.35 1016.39 1016.37 1016.42 1016.42 1016.43 1016.61 1016.72 1016.83 1016.86 1016.93 1016.91 1016.97 1017.07 1017.16 1017.28 1017.36 1017.27 1017.32 1017.29 1017.24 1017.27 1017.39 1017.40
1008.76 1008.96 1009.26 1009.66 1009.68 1009.70 1009.74 1009.67 1009.97 1010.72 1011.24 1011.81 1012.37 1013.33 1014.91 1015.41 1015.58 1016.12 1016.35 1016.46 1016.43 1016.66 1016.76 1016.61 1016.59 1016.49 1016.44 1016.57 1016.66 1016.65 1016.63 1016.74 1016.89 1017.06 1017.23 1017.39 1017.34 1017.28 1017.29 1017.42 1017.48 1017.58 1017.56 1017.55 1017.41 1017.32 1017.37 1017.45 1017.42
1008.37 1008.57 1008.77 1009.24 1009.52 1009.69 1009.86 1009.97 1010.17 1010.74 1011.40 1011.91 1012.22 1013.66 1015.03 1015.68 1016.02 1016.30 1016.60 1016.71 1016.60 1016.90 1016.91 1016.90 1016.73 1016.61 1016.64 1016.77 1016.87 1016.90 1016.91 1017.17 1017.28 1017.37 1017.54 1017.58 1017.47 1017.53 1017.57 1017.66 1017.69 1017.71 1017.65 1017.56 1017.40 1017.30 1017.33 1017.38 1017.51
1007.66 1008.08 1008.42 1008.75 1009.03 1009.41 1009.76 1010.07 1010.45 1010.85 1011.65 1012.05 1012.46 1013.58 1014.65 1015.60 1016.15 1016.56 1016.85 1017.07 1017.09 1017.08 1016.96 1016.95 1016.84 1016.91 1017.00 1017.06 1017.04 1017.13 1017.13 1017.35 1017.44 1017.41 1017.50 1017.49 1017.46 1017.57 1017.60 1017.62 1017.76 1017.65 1017.45 1017.46 1017.27 1017.13 1017.08 1017.27 1017.40
1006.88 1007.80 1008.24 1008.28 1008.65 1009.12 1009.56 1009.98 1010.46 1011.15 1011.78 1012.16 1012.80 1013.47 1014.38 1015.71 1016.32 1016.78 1017.17 1017.43 1017.35 1017.29 1017.07 1017.00 1017.06 1017.43 1017.43 1017.35 1017.18 1017.30 1017.35 1017.45 1017.43 1017.38 1017.51 1017.61 1017.72 1017.67 1017.59 1017.39 1017.51 1017.43 1017.25 1017.16 1016.95 1016.76 1016.99 1016.87 1017.26
1006.66 1007.31 1007.14 1007.01 1007.77 1008.42 1009.28 1010.00 1010.48 1011.33 1012.13 1012.82 1013.49 1014.22 1014.97 1015.84 1016.53 1016.88 1017.29 1017.54 1017.46 1017.52 1017.49 1017.32 1017.45 1017.60 1017.56 1017.30 1017.41 1017.67 1017.71 1017.65 1017.70 1017.78 1017.87 1017.86 1017.81 1017.76 1017.58 1017.45 1017.35 1017.32 1017.07 1016.83 1016.70 1016.66 1016.70 1016.62 1017.21
1006.14 1006.27 1006.26 1006.80 1007.28 1008.19 1009.27 1010.25 1010.70 1011.56 1012.44 1012.60 1013.42 1014.29 1015.32 1016.06 1016.71 1017.06 1017.48 1017.45 1017.42 1017.59 1017.56 1017.55 1017.53 1017.40 1017.53 1017.59 1017.82 1017.90 1017.92 1017.90 1017.90 1017.82 1017.70 1017.83 1017.74 1017.70 1017.61 1017.50 1017.46 1017.47 1017.24 1017.00 1016.80 1016.89 1016.91 1017.24 1017.33
1005.59 1005.77 1005.87 1006.69 1007.56 1008.56 1009.40 1010.17 1011.10 1011.67 1012.11 1012.19 1013.59 1014.32 1015.25 1016.12 1016.64 1017.12 1017.51 1017.62 1017.65 1017.73 1017.64 1017.58 1017.36 1017.56 1017.69 1017.83 1018.01 1018.06 1018.05 1018.04 1018.04 1017.84 1017.92 1018.04 1017.90 1017.83 1017.69 1017.62 1017.33 1017.26 1017.20 1017.03 1016.94 1016.84 1016.84 1017.10 1016.96
1005.68 1006.24 1006.45 1006.77 1007.83 1008.93 1009.69 1010.77 1011.61 1012.55 1012.78 1013.03 1013.89 1014.71 1015.49 1016.13 1016.69 1017.20 1017.43 1017.53 1017.68 1017.73 1017.64 1017.67 1017.60 1017.72 1017.79 1017.91 1018.13 1018.16 1018.15 1018.20 1018.10 1017.97 1017.92 1017.90 1017.97 1017.80 1017.56 1017.27 1017.25 1017.12 1017.11 1017.01 1016.78 1016.65 1016.64 1016.69 1016.39
1005.79 1006.46 1007.18 1007.76 1008.33 1009.30 1010.24 1011.41 1011.88 1013.37 1013.49 1013.79 1014.37 1014.93 1015.57 1016.01 1016.50 1017.03 1017.28 1017.48 1017.67 1017.78 1017.75 1017.74 1017.68 1017.66 1017.84 1017.95 1018.09 1018.21 1018.26 1018.18 1018.02 1017.89 1017.79 1017.68 1017.61 1017.50 1017.48 1017.42 1017.33 1017.33 1017.08 1016.90 1016.85 1016.77 1016.80 1016.68 1016.41
1006.72 1007.35 1008.20 1009.12 1008.98 1009.88 1010.32 1011.78 1012.61 1013.28 1013.60 1013.99 1014.54 1015.08 1015.57 1015.89 1016.25 1016.60 1016.92 1017.34 1017.43 1017.57 1017.65 1017.69 1017.57 1017.63 1017.94 1017.88 1018.05 1018.23 1018.07 1017.89 1017.90 1017.56 1017.40 1017.31 1017.33 1017.26 1017.22 1017.40 1017.44 1017.46 1017.23 1017.16 1017.06 1016.94 1016.66 1016.68 1016.30
1007.47 1008.07 1008.91 1008.93 1009.20 1009.87 1010.25 1012.03 1013.03 1013.41 1013.90 1014.30 1014.63 1014.89 1015.16 1015.40 1015.63 1016.08 1016.46 1016.75 1017.02 1017.30 1017.48 1017.57 1017.57 1017.63 1017.90 1017.84 1017.93 1017.82 1017.80 1017.80 1017.69 1017.48 1017.39 1017.25 1017.20 1017.25 1017.30 1017.45 1017.33 1017.12 1017.14 1017.10 1016.93 1017.02 1016.82 1016.74 1016.49
1008.25 1008.48 1008.63 1008.66 1008.59 1009.34 1010.32 1012.17 1012.80 1013.29 1013.63 1014.02 1014.29 1014.33 1014.54 1014.91 1015.31 1015.72 1016.07 1016.38 1016.63 1016.89 1017.12 1017.49 1017.56 1017.58 1017.80 1017.72 1017.73 1017.64 1017.60 1017.72 1017.61 1017.58 1017.48 1017.27 1017.06 1017.13 1017.30 1017.35 1017.14 1017.04 1017.00 1016.91 1016.97 1017.02 1017.11 1016.88 1016.58
1008.26 1008.37 1008.48 1008.41 1008.46 1009.12 1010.27 1011.34 1012.36 1012.90 1013.36 1013.57 1013.70 1013.79 1013.87 1014.16 1014.63 1015.09 1015.57 1015.92 1016.23 1016.57 1016.89 1017.25 1017.44 1017.48 1017.62 1017.65 1017.75 1017.67 1017.67 1017.60 1017.43 1017.42 1017.40 1017.19 1017.08 1016.99 1017.25 1017.19 1017.02 1016.90 1017.07 1017.07 1017.08 1017.03 1016.74 1016.62 1016.52
1006.98 1007.33 1007.85 1007.91 1008.07 1009.07 1010.07 1011.10 1011.72 1012.36 1013.00 1013.27 1013.22 1013.30 1013.38 1013.56 1013.86 1014.46 1014.93 1015.41 1015.86 1016.23 1016.75 1016.99 1017.32 1017.41 1017.69 1017.88 1018.00 1018.00 1017.98 1017.77 1017.57 1017.24 1017.09 1017.10 1017.06 1016.89 1017.01 1017.01 1016.92 1016.88 1017.06 1017.06 1017.01 1016.97 1016.96 1016.47 1016.25
1006.60 1006.92 1007.49 1007.57 1007.70 1008.73 1009.95 1010.58 1011.39 1011.76 1011.76 1012.57 1012.73 1012.81 1012.82 1013.16 1013.61 1014.03 1014.55 1014.97 1015.37 1015.74 1016.22 1016.61 1016.90 1017.16 1017.41 1017.52 1017.57 1017.56 1017.60 1017.59 1017.59 1017.28 1017.13 1017.06 1016.89 1016.72 1016.92 1016.90 1017.09 1017.14 1017.31 1017.30 1017.10 1017.04 1017.03 1016.91 1016.62
1006.19 1006.69 1006.96 1007.58 1007.71 1008.76 1009.70 1010.85 1011.50 1011.63 1011.85 1012.19 1012.10 1012.31 1012.53 1012.77 1013.11 1013.56 1014.03 1014.45 1014.84 1015.20 1015.53 1016.03 1016.39 1016.64 1016.93 1017.15 1017.40 1017.59 1017.64 1017.56 1017.67 1017.38 1017.18 1016.94 1016.93 1016.75 1016.73 1016.69 1016.71 1016.91 1017.12 1017.15 1017.14 1017.10 1017.14 1017.22 1016.87
1005.71 1005.51 1006.50 1007.39 1008.21 1008.99 1009.14 1010.42 1010.53 1010.50 1010.71 1011.08 1011.17 1011.34 1011.71 1012.07 1012.51 1012.87 1013.31 1013.85 1014.14 1014.47 1014.87 1015.36 1015.85 1016.22 1016.46 1016.76 1017.20 1017.50 1017.43 1017.65 1017.56 1017.39 1017.19 1017.01 1016.75 1016.56 1016.20 1016.30 1016.50 1016.78 1016.97 1017.11 1017.02 1016.96 1016.94 1017.06 1017.08
1004.30 1004.81 1005.75 1006.94 1008.14 1008.86 1009.34 1010.08 1008.75 1008.98 1009.54 1009.49 1009.76 1010.03 1010.56 1011.01 1011.58 1011.94 1012.43 1012.92 1013.37 1013.88 1014.24 1014.76 1015.34 1015.73 1016.03 1016.31 1016.57 1017.00 1017.19 1017.24 1017.10 1017.26 1017.32 1017.09 1016.73 1016.38 1016.12 1016.22 1016.58 1016.98 1017.14 1017.21 1017.05 1017.04 1016.98 1016.98 1017.08
1003.29 1004.69 1005.84 1007.15 1008.51 1009.44 1008.36 1009.27 1007.70 1007.60 1006.40 1007.35 1008.04 1008.70 1009.24 1009.93 1010.58 1011.14 1011.65 1012.26 1012.78 1013.25 1013.69 1014.15 1014.71 1015.07 1015.47 1015.74 1016.14 1016.45 1016.70 1016.88 1017.14 1017.25 1017.41 1017.14 1016.95 1016.80 1016.41 1016.47 1016.74 1016.89 1017.04 1017.12 1016.97 1016.95 1017.00 1017.20 1017.25
1003.65 1005.05 1006.68 1008.54 1009.51 1009.00 1007.93 1008.09 1005.60 1004.60 1004.65 1004.99 1006.13 1007.01 1007.98 1008.72 1009.67 1010.40 1011.17 1011.66 1012.09 1012.45 1012.89 1013.46 1013.99 1014.45 1014.88 1015.30 1015.54 1015.83 1016.10 1016.38 1016.66 1016.87 1017.15 1017.22 1017.16 1016.95 1016.79 1016.71 1016.80 1016.96 1016.91 1016.73 1016.62 1017.03 1017.24 1017.45 1017.59
1003.65 1004.94 1006.43 1008.12 1009.07 1008.39 1007.43 1006.47 1003.72 1002.24 1003.06 1003.94 1004.65 1005.40 1006.81 1007.79 1008.52 1009.36 1009.98 1010.57 1011.07 1011.56 1012.16 1012.71 1013.24 1013.87 1014.31 1014.62 1014.88 1015.18 1015.47 1015.84 1016.14 1016.39 1016.73 1016.85 1017.00 1016.82 1016.68 1016.79 1016.69 1016.75 1016.69 1016.88 1017.18 1017.60 1017.86 1017.98 1018.03
1003.70 1004.79 1004.99 1007.00 1008.24 1008.95 1006.81 1004.79 1002.94 1001.65 1002.32 1003.33 1004.28 1005.28 1006.02 1006.79 1007.49 1008.24 1009.04 1009.63 1010.20 1010.80 1011.17 1011.81 1012.55 1013.10 1013.48 1013.80 1014.26 1014.68 1015.08 1015.48 1015.74 1016.03 1016.39 1016.50 1016.64 1016.70 1016.60 1016.53 1016.97 1016.91 1017.04 1017.47 1017.75 1018.03 1018.38 1018.48 1018.59
1002.42 1003.61 1005.66 1007.31 1008.43 1008.42 1006.44 1004.81 1003.09 1002.43 1002.32 1002.96 1003.90 1004.32 1005.07 1005.91 1006.72 1007.43 1008.07 1008.63 1009.20 1009.69 1010.44 1011.24 1011.73 1012.05 1012.44 1012.99 1013.49 1014.06 1014.61 1015.05 1015.47 1015.83 1016.13 1016.32 1016.57 1016.59 1016.64 1016.97 1017.14 1017.48 1017.64 1017.92 1018.36 1018.73 1018.89 1018.92 1018.98
1002.46 1003.31 1005.05 1006.29 1007.26 1006.99 1006.10 1004.53 1002.02 1001.78 1001.83 1001.97 1002.69 1003.22 1003.99 1004.82 1005.61 1006.43 1007.13 1007.75 1008.26 1008.95 1009.64 1010.12 1010.76 1011.23 1011.64 1012.13 1012.78 1013.51 1014.08 1014.68 1015.19 1015.54 1015.82 1016.21 1016.56 1016.69 1016.86 1017.24 1017.71 1018.03 1018.28 1018.53 1018.75 1019.12 1019.24 1019.26 1019.27
1001.23 1002.39 1003.81 1005.83 1006.83 1006.70 1005.10 1003.04 1001.18 1000.89 1001.02 1001.33 1002.10 1002.82 1003.23 1003.82 1004.66 1005.49 1006.21 1007.10 1007.81 1008.27 1008.80 1009.22 1009.78 1010.27 1010.57 1011.35 1012.29 1013.00 1013.67 1014.30 1014.79 1015.11 1015.56 1016.03 1016.35 1016.80 1017.18 1017.60 1018.05 1018.52 1018.85 1019.12 1019.19 1019.29 1019.35 1019.24 1019.31
Thickness
5813 5811 5809 5798 5766 5759 5739 5751 5762 5770 5772 5780 5787 5783 5768 5762 5759 5745 5766 5769 5769 5767 5768 5769 5771 5773 5773 5773 5772 5774 5773 5772 5772 5773 5773 5774 5772 5769 5767 5767 5765 5766 5766 5763 5761 5760 5760 5756 5754
5816 5813 5806 5791 5765 5743 5745 5769 5772 5779 5778 5786 5784 5778 5770 5756 5767 5763 5764 5768 5768 5767 5768 5768 5769 5771 5772 5772 5772 5773 5772 5772 5771 5770 5771 5772 5770 5767 5767 5766 5765 5764 5764 5762 5761 5758 5756 5755 5753
5818 5820 5794 5782 5766 5748 5755 5776 5784 5783 5790 5788 5775 5778 5770 5757 5763 5764 5769 5769 5767 5766 5767 5769 5770 5771 5770 5772 5773 5773 5771 5771 5771 5771 5769 5769 5769 5769 5767 5766 5764 5762 5761 5760 5760 5757 5755 5753 5751
5813 5802 5794 5774 5765 5783 5781 5786 5791 5788 5790 5789 5782 5763 5769 5769 5767 5767 5767 5767 5767 5766 5767 5768 5769 5770 5771 5772 5773 5775 5774 5771 5771 5772 5770 5769 5767 5767 5765 5764 5763 5760 5758 5758 5757 5755 5753 5751 5749
5812 5797 5778 5774 5772 5786 5790 5798 5795 5785 5785 5782 5786 5762 5762 5767 5772 5768 5766 5767 5768 5767 5768 5769 5770 5770 5771 5773 5772 5773 5773 5771 5770 5769 5768 5766 5765 5765 5763 5762 5759 5756 5755 5754 5754 5754 5752 5749 5746
5796 5797 5771 5755 5768 5780 5785 5794 5790 5780 5781 5779 5775 5770 5760 5769 5770 5767 5767 5767 5767 5768 5768 5769 5770 5771 5772 5772 5772 5771 5771 5770 5769 5767 5764 5763 5763 5763 5762 5760 5758 5756 5754 5754 5754 5753 5750 5748 5746
5795 5788 5780 5772 5767 5774 5779 5794 5785 5782 5779 5776 5786 5763 5762 5764 5769 5769 5767 5768 5769 5767 5768 5768 5770 5771 5771 5771 5769 5770 5770 5768 5767 5765 5762 5761 5762 5761 5761 5759 5757 5755 5754 5753 5753 5752 5749 5747 5743
5810 5797 5786 5782 5770 5770 5785 5789 5793 5785 5775 5788 5786 5763 5760 5764 5769 5769 5766 5766 5767 5767 5768 5768 5770 5769 5769 5768 5769 5768 5768 5766 5766 5765 5761 5761 5759 5761 5761 5758 5754 5753 5754 5753 5752 5750 5748 5746 5742
5828 5784 5774 5783 5779 5779 5793 5786 5797 5794 5781 5785 5784 5777 5774 5767 5767 5765 5762 5762 5764 5765 5769 5768 5768 5765 5766 5768 5770 5767 5765 5765 5765 5764 5761 5760 5759 5761 5762 5760 5755 5754 5754 5754 5753 5752 5747 5747 5744
5809 5780 5793 5811 5803 5794 5797 5793 5788 5783 5777 5771 5770 5772 5770 5766 5762 5760 5758 5757 5761 5761 5764 5767 5766 5765 5766 5768 5767 5764 5764 5765 5764 5763 5762 5760 5761 5760 5760 5758 5756 5754 5756 5757 5756 5755 5752 5752 5748
5815 5796 5813 5812 5815 5809 5796 5789 5794 5779 5767 5774 5768 5766 5764 5762 5759 5759 5756 5760 5760 5762 5764 5766 5766 5768 5767 5766 5766 5767 5766 5764 5763 5763 5762 5761 5761 5760 5761 5760 5758 5756 5757 5758 5758 5755 5753 5751 5749
5812 5820 5823 5817 5816 5806 5795 5797 5785 5786 5781 5788 5775 5772 5765 5757 5757 5756 5755 5758 5759 5762 5764 5766 5767 5767 5768 5767 5766 5768 5767 5765 5763 5764 5762 5760 5761 5761 5762 5762 5760 5760 5759 5760 5759 5757 5756 5754 5754
5812 5813 5818 5822 5814 5806 5804 5788 5784 5774 5781 5782 5776 5770 5761 5758 5757 5757 5759 5760 5760 5761 5764 5765 5767 5768 5769 5768 5767 5768 5766 5764 5764 5765 5763 5762 5761 5761 5764 5767 5765 5764 5762 5761 5759 5758 5758 5758 5760
5825 5817 5812 5812 5809 5803 5788 5782 5786 5773 5778 5774 5772 5767 5763 5760 5760 5758 5759 5759 5760 5762 5765 5767 5768 5770 5770 5769 5770 5768 5767 5764 5767 5766 5764 5764 5764 5766 5766 5766 5766 5764 5763 5761 5760 5758 5757 5756 5758
5816 5800 5801 5797 5801 5790 5796 5773 5770 5779 5780 5773 5770 5766 5764 5763 5764 5763 5764 5762 5763 5766 5768 5768 5771 5770 5769 5771 5770 5768 5768 5769 5769 5768 5767 5765 5766 5769 5769 5767 5765 5763 5763 5762 5760 5759 5758 5757 5757
5798 5793 5771 5796 5801 5797 5796 5757 5772 5781 5777 5769 5768 5769 5769 5769 5771 5770 5770 5769 5769 5770 5769 5771 5774 5774 5772 5772 5772 5772 5772 5772 5772 5771 5769 5769 5769 5769 5768 5766 5765 5765 5764 5763 5762 5760 5758 5757 5758
5779 5768 5781 5789 5810 5801 5792 5761 5776 5783 5783 5775 5774 5776 5777 5776 5775 5775 5775 5775 5775 5775 5774 5772 5774 5775 5775 5775 5775 5776 5776 5775 5775 5772 5773 5772 5771 5769 5768 5766 5765 5765 5764 5761 5759 5757 5754 5753 5754
5771 5775 5781 5784 5802 5801 5784 5774 5778 5783 5782 5780 5780 5780 5783 5783 5781 5782 5781 5782 5780 5778 5776 5775 5776 5778 5778 5778 5778 5778 5779 5777 5778 5776 5776 5775 5775 5775 5773 5770 5768 5766 5764 5760 5758 5756 5759 5757 5757
5799 5793 5787 5798 5812 5795 5784 5778 5779 5784 5782 5781 5784 5784 5786 5788 5792 5791 5789 5788 5784 5781 5777 5777 5777 5779 5779 5778 5778 5778 5777 5778 5779 5780 5780 5779 5778 5777 5774 5771 5770 5769 5765 5763 5762 5759 5757 5759 5759
5801 5794 5785 5802 5810 5799 5783 5782 5785 5787 5790 5787 5789 5788 5790 5792 5793 5794 5793 5792 5790 5787 5786 5784 5784 5784 5784 5783 5784 5784 5782 5781 5781 5782 5781 5779 5779 5779 5774 5772 5769 5765 5761 5761 5761 5759 5753 5752 5754
5794 5784 5788 5792 5804 5801 5790 5774 5777 5787 5791 5792 5797 5797 5796 5795 5794 5797 5797 5797 5797 5795 5795 5792 5791 5790 5790 5789 5787 5785 5784 5783 5780 5782 5781 5782 5779 5778 5775 5773 5771 5767 5764 5760 5759 5757 5752 5744 5748
5776 5812 5805 5797 5785 5765 5800 5752 5774 5791 5789 5795 5799 5802 5800 5801 5804 5805 5805 5803 5804 5804 5804 5801 5798 5796 5796 5793 5789 5785 5783 5779 5782 5783 5784 5784 5783 5782 5782 5779 5774 5770 5766 5762 5759 5759 5755 5749 5743
5809 5822 5812 5805 5784 5785 5784 5766 5788 5801 5790 5801 5807 5811 5809 5810 5811 5811 5813 5813 5813 5812 5810 5808 5804 5801 5800 5797 5795 5790 5786 5786 5786 5784 5783 5784 5784 5783 5783 5779 5775 5770 5765 5760 5758 5755 5752 5749 5743
5840 5822 5810 5788 5773 5749 5787 5777 5786 5792 5818 5819 5823 5822 5819 5819 5820 5821 5823 5821 5818 5818 5816 5813 5809 5807 5805 5803 5799 5796 5791 5788 5786 5786 5783 5783 5782 5780 5780 5777 5772 5767 5762 5758 5755 5752 5748 5743 5739
5819 5785 5747 5742 5741 5750 5786 5779 5818 5834 5843 5844 5838 5837 5834 5832 5828 5827 5824 5824 5823 5823 5822 5819 5815 5811 5809 5806 5804 5801 5798 5794 5790 5789 5786 5782 5780 5779 5778 5775 5770 5765 5760 5757 5754 5749 5743 5736 5730
5798 5788 5748 5732 5738 5763 5788 5775 5822 5867 5863 5859 5858 5854 5847 5841 5839 5836 5836 5834 5832 5830 5828 5825 5822 5816 5814 5811 5809 5807 5804 5800 5796 5793 5789 5786 5782 5781 5778 5775 5770 5766 5762 5755 5748 5741 5734 5727 5721
5795 5777 5815 5777 5761 5752 5774 5813 5847 5862 5861 5857 5855 5852 5849 5849 5847 5845 5844 5843 5840 5837 5836 5833 5827 5823 5820 5818 5814 5810 5807 5803 5799 5797 5793 5790 5787 5782 5779 5774 5768 5763 5757 5749 5742 5734 5725 5719 5712
5809 5820 5773 5752 5739 5740 5775 5794 5812 5841 5849 5855 5852 5855 5856 5856 5853 5853 5852 5851 5849 5848 5844 5839 5836 5832 5829 5824 5820 5815 5810 5806 5802 5799 5794 5791 5787 5783 5778 5770 5765 5758 5752 5744 5735 5725 5718 5711 5704
5794 5787 5781 5777 5758 5752 5757 5787 5841 5846 5861 5863 5862 5866 5864 5862 5861 5860 5860 5859 5858 5854 5850 5847 5843 5838 5834 5831 5826 5819 5814 5809 5804 5800 5796 5791 5786 5781 5776 5766 5760 5752 5745 5738 5730 5720 5711 5704 5698
5819 5802 5797 5763 5765 5758 5774 5791 5865 5863 5872 5875 5870 5869 5872 5872 5870 5868 5867 5863 5859 5858 5856 5853 5850 5846 5844 5837 5829 5822 5816 5810 5805 5801 5796 5791 5785 5779 5772 5763 5754 5745 5737 5730 5722 5715 5708 5701 5693